STARLINK-1042, 44747

Orbit data source: Space-Track

STARLINK-1042, 44747 is a payload satellite owned by SpaceX/Seattle (US) in LEO that was launched on Mon, 11 Nov 2019 UTC via an FALCON 9 launch vehicle from the Air Force Eastern Test Range (AFETR). Payload-class satellites include a variety of spacecraft equipped with specific instruments for various scientific and technological missions. These include communications satellites like Starlink; space stations such as the ISS; scientific satellites like the Hubble; Earth observation satellites from companies like Planet Labs, Umbra, and HawkEye 360; GPS; miniature CubeSats for education and research; and military/defense satellites.

Loading next visibility...
Identifier
44747, 2019-074AL
Orbit
LEO
Country
Flag of USUS
Related business
Manufacturer
SpaceX/Seattle
Mission
Partially operational Commercial Communications
Bus & Motor
STARLINK, Unknown motor
Mass
260 kg wet, ~248 kg dry
Launch date (UTC)
2019-11-11 (7 years ago)
Launch vehicle
FALCON 9
Launch site
Air Force Eastern Test Range (AFETR)
Object type
Payload
Rocket body
Debris
Shape & HBR
Box + 1 Pan, 10.1 m
Radar Cross Section
13.562 m², Large (>1 m²)

Expand to show TLE details & history
Last TLE update: 9 hours ago

TLE from 9 hours ago
0 STARLINK-1042
1 44747U 19074AL  26264.49975263  .00026391  00000-0  31000-3 0  9990
2 44747  53.0380 228.0481 0006043  56.9406 303.2187 15.61285928380535
Epoch: 2026-09-21T11:59Z
TLE epoch observation values (Epoch: 2026-09-21T11:59:38.627Z)
Latitude
0.00005°
Longitude
47.75849°
Altitude
382.603 km
Speed
7.683 km/s
True Right ascension
15h 12m 11s
True Declination
0° 00' 00"
Sunlit
Object was in daylight at epoch
Visualization orbit readout
Latitude
Unknown
Longitude
Unknown
Altitude
Unknown
Speed
Unknown
Apparent Right ascension
Unknown
Apparent Declination
Unknown
Sunlit
N/A
Visualization observer readout
Local Sidereal Time
14:06:28
Azimuth
Unknown
Elevation
Unknown
Doppler factor
Unknown
Orbital elements
Apogee altitude
388.308 km
Perigee altitude
380.135 km
Semi-major axis
6,762.358 km
Eccentricity
0.0006
Inclination
53.038°
RAAN
228.0481°
Arg. of periapsis
56.9406°
True anomaly
303.16074°
Mean anomaly
303.2187°
Eccentric anomaly
303.18972°
Mean motion
3.90298 °/min
Orbital period
92.24 mins
BSTAR
0.00031
Loading maneuver chart data...
Computing Atmospheric mass density...

Documentation

Showing up to 5 results
|